Temp
63 63 61 62 61 60 60 59 60 59 58 56 57 55 54 54 54 53 52 52 51 51
64 64 64 63 60 61 60 57 56 57 56 55 55 54 53 54 53 53 51 51 50 50
64 65 64 60 60 60 58 57 55 55 56 54 53 55 54 52 52 52 50 50 49 48
65 65 62 61 61 60 57 56 56 55 54 53 54 54 53 52 51 50 49 48 47 46
64 59 59 59 59 58 57 56 55 54 53 54 53 52 51 50 51 49 45 46 46 45
61 59 60 61 61 61 56 55 54 54 53 53 52 51 51 51 49 47 46 46 46 45
61 60 61 61 61 59 56 54 53 53 53 52 51 50 49 47 46 45 45 46 45 45
61 61 59 57 55 54 53 53 52 52 50 50 49 48 46 46 45 45 44 44 45 45
58 58 55 55 54 53 51 51 50 49 47 46 46 41 42 45 44 44 44 42 43 44
56 55 54 53 51 49 48 48 46 45 45 44 44 40 41 41 44 43 42 41 41 42
54 52 51 50 48 47 47 46 44 43 44 44 43 40 40 39 41 40 40 40 37 36
51 49 48 46 46 45 44 43 42 43 43 42 39 39 39 40 39 37 36 36 36 33
49 48 44 42 41 41 42 41 40 38 38 39 37 38 38 37 35 30 28 31 31 34
46 44 43 41 41 40 40 40 38 35 34 35 36 35 36 35 29 29 29 28 28 28
MSLP
1015.11 1015.44 1015.52 1015.54 1015.80 1015.89 1016.11 1016.28 1016.78 1016.96 1017.23 1017.79 1018.38 1019.02 1019.53 1020.04 1020.38 1020.84 1021.40 1021.90 1022.22 1022.94
1013.91 1014.34 1014.47 1014.75 1015.03 1015.26 1015.40 1015.63 1016.08 1016.36 1017.07 1017.63 1018.03 1018.56 1019.15 1019.67 1020.09 1020.56 1021.15 1021.63 1022.31 1022.77
1012.74 1013.44 1013.87 1014.19 1014.16 1014.39 1014.99 1015.20 1015.75 1016.26 1016.59 1017.10 1017.71 1018.21 1018.86 1019.49 1019.91 1020.42 1021.01 1021.53 1022.12 1022.72
1010.90 1011.77 1012.70 1013.46 1013.84 1014.00 1014.21 1014.64 1015.26 1015.73 1016.22 1016.60 1017.27 1017.97 1018.66 1019.14 1019.59 1020.22 1020.77 1021.32 1021.89 1022.39
1010.65 1011.30 1012.18 1012.65 1013.01 1013.73 1013.72 1014.21 1014.77 1015.35 1015.73 1016.29 1016.97 1017.68 1018.23 1018.86 1019.33 1019.82 1020.55 1021.08 1021.50 1022.32
1010.03 1010.66 1010.89 1011.43 1011.77 1012.00 1013.19 1013.94 1014.53 1014.85 1015.37 1016.01 1016.51 1017.19 1017.81 1018.40 1019.00 1019.57 1020.37 1020.72 1021.54 1021.99
1008.78 1009.49 1010.10 1010.47 1010.86 1011.32 1012.53 1013.37 1014.33 1014.57 1014.83 1015.54 1016.28 1016.89 1017.63 1018.40 1018.99 1019.60 1020.21 1020.80 1021.33 1021.68
1008.09 1008.79 1009.56 1010.06 1010.48 1011.35 1012.14 1012.98 1013.78 1014.22 1014.69 1015.49 1016.17 1016.87 1017.59 1018.18 1018.93 1019.59 1020.23 1020.85 1021.20 1021.59
1008.19 1008.83 1009.36 1009.91 1010.53 1011.32 1012.17 1012.96 1013.54 1014.19 1014.75 1015.56 1016.21 1016.81 1017.49 1018.22 1018.94 1019.60 1020.30 1020.74 1021.35 1021.63
1008.07 1008.73 1009.37 1009.98 1010.61 1011.48 1012.47 1013.12 1013.87 1014.42 1015.00 1015.75 1016.43 1017.07 1017.73 1018.35 1019.10 1019.75 1020.46 1020.99 1021.45 1021.85
1008.32 1009.01 1009.80 1010.41 1011.24 1012.05 1012.98 1013.74 1014.27 1014.96 1015.59 1016.20 1016.95 1017.43 1018.08 1018.65 1019.27 1020.07 1020.79 1021.21 1021.61 1022.09
1008.58 1009.66 1010.52 1011.40 1011.94 1012.62 1013.26 1014.07 1014.79 1015.42 1016.00 1016.56 1017.39 1017.83 1018.28 1018.89 1019.73 1020.52 1021.16 1021.57 1022.01 1022.28
1008.74 1009.42 1010.31 1010.95 1011.67 1012.21 1012.83 1013.85 1014.76 1015.68 1016.22 1016.74 1017.50 1018.08 1018.58 1019.05 1019.70 1020.64 1021.42 1021.90 1022.27 1022.40
1009.18 1009.74 1010.31 1011.19 1011.89 1012.66 1013.46 1014.39 1015.23 1016.04 1016.98 1017.55 1017.96 1018.58 1018.88 1019.35 1020.19 1020.94 1021.63 1022.02 1022.32 1022.56
Wind_Speed
20 12 11 13 10 9 9 9 11 11 10 9 8 6 6 5 5 7 6 8 5 3
17 17 14 14 9 9 9 5 7 10 9 8 8 9 8 6 7 8 5 5 5 4
17 16 13 10 12 12 9 9 9 10 11 9 8 9 9 6 6 7 4 4 6 5
19 17 10 11 10 11 8 9 10 10 9 9 9 9 8 7 8 9 7 7 9 8
11 8 9 10 8 4 8 8 9 9 9 8 8 9 9 8 8 10 10 9 10 8
10 13 16 14 13 17 11 9 8 9 10 10 9 9 8 9 9 9 8 10 9 8
15 15 14 16 14 13 11 11 9 9 9 8 8 8 8 8 9 10 9 8 7 6
14 14 11 10 10 10 10 10 8 8 7 8 8 7 10 10 10 10 9 7 6 5
12 12 11 10 9 9 7 8 8 7 9 9 6 15 14 12 9 8 8 6 4 4
11 11 11 10 11 10 8 8 7 8 9 9 9 14 14 12 7 7 5 4 4 1
10 10 9 10 9 8 8 7 7 8 8 9 7 13 13 12 7 6 5 5 6 5
10 11 10 9 10 8 9 8 7 7 9 9 8 12 13 10 6 7 7 6 5 5
12 13 12 11 11 7 9 9 8 7 6 9 7 10 11 9 6 6 4 4 4 8
10 11 11 9 8 8 10 10 8 9 8 9 9 11 15 13 5 5 4 3 2 2
Wind_Direction
222 221 218 217 212 212 207 198 191 185 181 181 176 171 168 179 170 162 163 171 161 174
221 222 225 220 201 203 199 181 177 177 180 182 174 175 175 174 169 169 163 154 162 149
225 226 225 208 204 200 201 182 177 186 185 175 170 177 177 171 158 158 147 150 146 116
215 218 212 218 219 207 188 178 187 186 178 174 175 174 175 163 158 157 142 138 139 133
210 172 175 161 158 208 221 188 186 183 171 169 162 167 166 166 170 157 152 149 140 147
180 182 191 175 184 208 188 186 187 175 165 168 168 169 172 174 167 155 150 146 154 159
193 195 196 197 206 191 179 170 187 181 167 168 166 165 161 149 132 135 149 158 157 151
197 200 201 180 155 158 167 170 175 156 149 146 151 150 146 142 148 152 149 154 161 164
185 179 173 154 145 136 135 146 146 155 142 136 139 143 143 147 149 148 157 152 170 170
157 163 149 139 134 131 137 136 132 125 127 131 137 144 137 131 135 129 133 145 147 142
137 129 130 130 127 125 131 142 130 124 128 130 140 139 136 117 113 111 113 92 87 97
136 130 132 127 132 132 126 118 120 127 128 126 137 135 132 121 114 103 101 93 79 84
136 138 137 140 142 132 127 126 123 114 105 114 115 126 119 116 123 112 102 89 83 58
132 133 135 130 123 121 120 123 115 99 82 86 97 99 110 109 97 116 117 108 88 60